Wetbulb
76.15 74.98 74.88 75.11 72.70 73.09 72.70 70.10 70.77 70.88 73.85 75.01 75.58 75.63 75.52 77.93 76.03 76.07 73.06 73.52 75.62 77.22
75.03 75.04 75.35 73.71 74.20 73.51 70.76 73.80 75.07 74.06 74.48 75.26 75.00 75.93 77.31 76.81 76.19 76.98 73.16 73.70 75.36 76.20
75.71 75.93 75.30 74.48 74.07 72.69 73.87 74.81 75.67 74.99 75.10 75.38 75.60 75.74 76.24 75.47 76.06 76.03 77.04 76.69 75.41 76.77
75.31 74.85 75.02 73.97 72.75 72.80 74.74 74.88 75.08 75.43 75.35 75.24 74.41 74.13 75.48 75.93 76.01 74.83 74.61 75.72 76.06 75.95
75.26 74.75 74.34 74.42 74.18 75.01 75.00 75.48 75.72 75.66 75.78 75.84 75.99 76.13 75.94 74.69 74.57 74.21 74.48 74.95 72.62 73.91
74.87 74.12 74.29 74.50 74.97 75.40 75.49 75.95 75.73 76.30 76.13 75.91 76.08 75.66 75.63 75.44 73.90 74.19 74.54 74.68 71.93 72.51
74.49 75.43 75.68 75.78 75.74 75.79 76.03 75.95 75.95 76.46 76.68 76.44 76.07 75.55 73.98 74.72 73.60 73.28 72.28 73.03 70.26 71.33
75.51 75.85 75.71 75.70 75.65 75.85 76.55 76.21 76.76 76.73 76.37 76.44 75.78 74.85 74.28 74.22 71.83 70.53 69.20 69.65 70.42 71.26
75.49 75.55 75.66 75.88 76.13 76.72 76.46 76.57 76.74 76.63 76.38 75.83 74.90 67.02 69.89 73.11 72.39 72.40 70.30 69.89 70.03 70.28
75.87 75.83 76.01 76.20 76.68 76.09 75.98 76.89 76.76 76.49 75.87 75.34 75.13 65.27 66.49 68.74 74.46 74.38 73.10 71.94 69.88 68.86
76.21 76.03 76.43 76.21 76.07 76.37 77.36 76.31 76.12 75.60 75.58 75.11 73.53 63.49 64.75 67.34 75.20 74.39 73.79 73.42 72.30 68.62
76.49 76.07 76.36 75.96 76.19 76.03 75.88 75.64 75.55 75.33 75.07 74.58 72.53 61.46 63.38 66.89 73.50 73.19 73.68 73.45 73.01 71.86
76.66 76.60 76.32 76.95 77.40 76.70 76.20 75.62 75.28 74.41 74.55 70.96 73.36 59.09 60.16 64.54 70.83 70.94 71.40 73.46 73.10 64.91
76.99 77.44 77.82 77.56 76.63 76.22 75.87 75.66 74.84 73.83 73.62 73.31 72.18 67.72 57.94 59.64 70.26 68.75 69.61 69.92 70.69 70.50
MSLP
1009.81 1010.28 1010.78 1011.11 1012.00 1012.49 1013.06 1013.68 1014.08 1014.68 1014.53 1014.12 1013.82 1013.76 1013.76 1014.04 1013.96 1014.06 1014.59 1014.54 1014.52 1014.66
1009.44 1009.95 1009.91 1011.10 1011.57 1012.01 1012.81 1012.92 1013.17 1013.68 1013.62 1013.48 1013.52 1013.37 1013.25 1013.18 1013.12 1013.66 1014.05 1013.95 1013.92 1014.12
1008.90 1009.49 1010.05 1010.72 1011.26 1011.64 1011.94 1012.21 1012.27 1012.38 1012.67 1012.91 1012.80 1012.93 1013.11 1012.60 1012.49 1012.86 1013.26 1013.43 1013.40 1013.59
1008.29 1009.14 1009.69 1010.20 1010.78 1011.23 1011.28 1011.38 1011.67 1011.86 1012.08 1012.14 1012.57 1012.88 1012.74 1012.44 1012.47 1012.61 1012.79 1012.99 1013.00 1012.97
1008.13 1008.85 1009.05 1009.37 1009.92 1010.30 1010.55 1010.80 1011.01 1011.29 1011.42 1011.47 1011.71 1011.97 1012.04 1012.04 1012.29 1012.21 1012.10 1012.25 1012.88 1012.95
1007.66 1008.13 1008.41 1008.88 1009.19 1009.64 1009.97 1010.19 1010.28 1010.64 1010.87 1011.04 1011.10 1011.54 1011.68 1011.87 1012.16 1012.00 1011.95 1012.29 1012.90 1013.09
1007.54 1007.66 1007.94 1008.47 1008.68 1008.97 1009.52 1009.74 1009.76 1009.99 1010.17 1010.46 1010.77 1011.06 1011.53 1011.55 1011.94 1012.20 1012.44 1012.74 1013.20 1013.27
1006.64 1006.94 1007.42 1008.01 1008.48 1008.81 1009.02 1009.32 1009.32 1009.52 1009.80 1010.16 1010.25 1010.43 1011.22 1011.33 1012.02 1012.35 1012.78 1013.01 1013.16 1013.08
1006.50 1006.94 1007.33 1007.78 1008.23 1008.56 1008.81 1008.86 1009.03 1009.13 1009.36 1009.66 1009.71 1010.61 1010.89 1011.12 1011.54 1012.02 1012.53 1012.91 1013.17 1013.45
1006.22 1006.80 1007.21 1007.51 1007.77 1008.10 1008.38 1008.72 1008.84 1008.92 1009.16 1009.49 1009.73 1010.78 1011.09 1011.23 1011.00 1011.33 1011.71 1012.23 1013.01 1013.37
1005.69 1005.97 1006.47 1006.86 1007.32 1007.86 1008.17 1008.46 1008.61 1008.84 1009.16 1009.36 1009.86 1010.72 1011.15 1011.22 1010.54 1010.76 1011.45 1011.79 1012.63 1013.24
1005.61 1005.54 1005.83 1006.42 1006.77 1006.99 1007.50 1008.04 1008.42 1008.80 1009.24 1009.43 1009.79 1010.45 1010.52 1010.89 1010.38 1010.08 1010.84 1011.51 1012.05 1012.60
1005.17 1005.50 1005.67 1005.67 1006.13 1006.79 1007.04 1007.42 1007.65 1008.31 1008.80 1009.24 1009.64 1010.71 1010.75 1010.52 1009.86 1009.98 1010.15 1010.75 1011.61 1012.55
1004.50 1004.99 1005.44 1005.86 1006.14 1006.56 1007.35 1007.19 1007.74 1008.08 1008.49 1009.01 1009.35 1010.06 1010.49 1010.68 1010.18 1009.68 1009.88 1009.93 1010.70 1011.71
Wind_Speed
15 11 13 15 9 11 10 10 12 13 15 15 15 13 13 7 11 10 6 10 10 8
13 14 12 11 13 8 9 12 15 16 15 14 11 14 11 10 9 10 9 13 13 10
13 13 10 11 11 10 12 13 12 12 12 12 11 9 9 10 10 10 9 8 13 11
11 11 11 12 11 11 13 11 11 10 11 10 11 11 10 11 11 11 12 12 12 12
11 12 13 11 13 13 11 11 11 10 10 10 10 10 10 10 9 11 12 12 9 9
11 11 10 11 11 12 11 10 10 10 9 10 10 7 8 6 5 6 8 7 2 6
11 12 12 11 11 11 10 10 10 10 10 10 9 8 4 6 4 1 2 3 2 7
12 11 10 11 11 11 11 10 9 9 8 9 9 8 8 7 7 6 5 2 3 1
12 11 11 11 11 10 10 11 9 10 9 9 8 10 6 6 10 9 8 7 3 3
13 12 11 10 11 11 12 9 10 9 8 8 6 6 7 8 9 8 10 9 7 6
14 14 13 12 11 11 9 10 9 9 9 9 7 8 6 6 8 10 10 9 10 9
13 14 14 13 13 12 11 11 10 10 10 9 9 11 10 7 7 7 9 9 10 9
14 14 14 14 13 12 12 12 11 11 11 9 9 9 8 8 7 7 7 8 8 3
15 14 13 12 11 12 12 10 11 11 10 10 10 10 9 7 7 6 7 6 8 7
Wind_Direction
217 219 216 217 193 206 197 192 200 221 237 244 244 245 247 243 242 233 220 234 236 225
211 218 215 195 207 205 187 207 215 218 233 239 250 247 243 244 233 235 211 227 232 225
203 209 205 205 204 206 215 220 228 209 225 237 230 251 247 248 241 233 232 224 218 213
194 192 197 193 199 209 224 214 218 227 235 222 217 227 237 256 259 241 233 229 218 209
183 187 197 195 198 209 213 216 221 221 223 220 217 222 229 253 249 244 228 220 206 219
182 187 198 196 203 199 207 213 212 214 214 213 214 217 227 246 245 266 244 203 189 229
188 196 194 193 198 190 196 207 212 204 205 205 200 198 227 187 205 168 293 155 337 280
179 178 179 180 184 197 193 200 206 197 199 211 205 196 183 179 159 147 127 85 307 183
172 172 181 182 192 198 198 205 203 201 197 198 221 97 122 202 184 172 164 157 147 61
172 178 187 189 194 197 201 193 202 200 195 197 196 131 177 204 212 207 195 183 167 159
177 178 184 186 189 193 201 199 201 198 196 188 154 151 172 197 219 183 185 188 175 175
191 186 182 191 191 189 191 197 199 197 197 202 162 161 165 199 199 200 170 178 183 187
192 198 196 189 190 195 195 198 196 195 196 194 187 172 170 195 220 195 213 183 182 89
192 194 202 194 192 192 209 204 207 197 196 195 204 171 174 189 228 228 199 221 188 184